This is the latest recevied weather packets stored in our database for station/object WE1C. If no packets are shown the sender has not sent any weather packets the latest 10 day(s).
| Time | Temp. | Humidity | Pressure | Rain* | Wind** | Luminosity | Snow |
|---|---|---|---|---|---|---|---|
| 1777920269 | 21.67° C | 29% | 1036.5 hPa | 0 mm | - | 704 W/m² | - |
| 1777919965 | 21.11° C | 32% | 1036.8 hPa | 0 mm | - | 161 W/m² | - |
| 1777919663 | 21.11° C | 30% | 1037 hPa | 0 mm | - | 720 W/m² | - |
| 1777919361 | 21.11° C | 29% | 1037 hPa | 0 mm | - | 715 W/m² | - |
| 1777919057 | 21.11° C | 29% | 1037.1 hPa | 0 mm | - | 725 W/m² | - |
| 1777918754 | 21.11° C | 30% | 1036.9 hPa | 0 mm | - | 736 W/m² | - |
| 1777918452 | 21.11° C | 29% | 1037 hPa | 0 mm | - | 726 W/m² | - |
| 1777918150 | 20° C | 31% | 1036.9 hPa | 0 mm | - | 725 W/m² | - |
| 1777917849 | 20.56° C | 30% | 1037.3 hPa | 0 mm | - | 715 W/m² | - |
| 1777917547 | 20.56° C | 29% | 1037.2 hPa | 0 mm | - | 728 W/m² | - |
| 1777917243 | 20.56° C | 30% | 1036.9 hPa | 0 mm | - | 750 W/m² | - |
| 1777916941 | 20° C | 30% | 1037.1 hPa | 0 mm | - | 753 W/m² | - |
| 1777916638 | 20° C | 31% | 1037.2 hPa | 0 mm | - | 750 W/m² | - |
| 1777916335 | 20° C | 29% | 1037.3 hPa | 0 mm | - | 740 W/m² | - |
| 1777916032 | 20° C | 31% | 1037.5 hPa | 0 mm | - | 742 W/m² | - |
| 1777915729 | 20° C | 33% | 1037.4 hPa | 0 mm | - | 773 W/m² | - |
| 1777915426 | 20° C | 32% | 1037.3 hPa | 0 mm | - | 760 W/m² | - |
| 1777915121 | 19.44° C | 33% | 1037.6 hPa | 0 mm | - | 737 W/m² | - |
| 1777914819 | 19.44° C | 32% | 1037.5 hPa | 0 mm | - | 756 W/m² | - |
| 1777914516 | 19.44° C | 32% | 1037.5 hPa | 0 mm | - | 757 W/m² | - |
| 1777914212 | 18.89° C | 33% | 1037.7 hPa | 0 mm | - | 739 W/m² | - |
| 1777913909 | 19.44° C | 33% | 1037.6 hPa | 0 mm | - | 546 W/m² | - |
| 1777913606 | 20° C | 32% | 1037.6 hPa | 0 mm | - | 752 W/m² | - |
| 1777913302 | 18.89° C | 33% | 1037.6 hPa | 0 mm | - | 772 W/m² | - |
| 1777912999 | 19.44° C | 33% | 1037.5 hPa | 0 mm | - | 769 W/m² | - |
* Rain latest hour (hover to see other rain measurements)
** Current wind speed in m/s (hover to see current wind gust speed)